Regional Weather Roundup
Issued by NWS

Home | Current Version | Previous Version | Graphics & Text | Print | Product List | Glossary On
Versions: 1 2 3 4 5 6 7 8 9 10 11 12 13 14 15 16 17 18 19 20 21 22 23 24 25 26 27 28 29 30 31 32 33 34 35 36 37 38 39 40 41 42 43 44 45 46 47 48 49 50
000
ASUS43 KFSD 021902
RWRSD

WEATHER ROUNDUP FOR SOUTH DAKOTA
NATIONAL WEATHER SERVICE SIOUX FALLS SD
200 PM CDT WED SEP 02 2015

NOTE: "FAIR" INDICATES FEW OR NO CLOUDS BELOW 12,000 FEET WITH NO
SIGNIFICANT WEATHER AND/OR OBSTRUCTIONS TO VISIBILITY.


SDZ001>005-009-010-012>017-022000-
NORTHWEST AND NORTH CENTRAL SOUTH DAKOTA

CITY           SKY/WX    TMP DP  RH WIND       PRES   REMARKS
BUFFALO          N/A     91  45  20 S10       29.74F
MOBRIDGE       MOSUNNY   86  72  62 SE10      29.76S
$$

SDZ012>016-024>037-041>051-057-063-072>074-022000-
SOUTHWEST AND SOUTH CENTRAL SOUTH DAKOTA

CITY           SKY/WX    TMP DP  RH WIND       PRES   REMARKS
RAPID CTY ARPT SUNNY     92  56  29 E5        29.82F
PIERRE         MOSUNNY   88  67  49 CALM      29.75F
CUSTER         SUNNY     86  37  17 W12G22    30.02F
ELLSWORTH AFB  SUNNY     92  52  25 VRB5      29.82F
PHILIP         SUNNY     94  57  28 S7        29.77F
PINE RIDGE     MOSUNNY   96  47  18 SW10      29.88F
WINNER         FAIR      95  56  26 S8        29.79F
$$

SDZ004>011-016>023-039-040-022000-
NORTHEAST SOUTH DAKOTA

CITY           SKY/WX    TMP DP  RH WIND       PRES   REMARKS
ABERDEEN       MOSUNNY   87  71  58 SE12      29.78S
WATERTOWN      MOSUNNY   86  71  60 SE15      29.83S
BROOKINGS      SUNNY     84  73  70 SE13G20   29.85S
$$

SDZ017-020-022-023-036>040-048>070-022000-
SOUTHEAST SOUTH DAKOTA

CITY           SKY/WX    TMP DP  RH WIND       PRES   REMARKS
SIOUX FALLS    MOSUNNY   85  73  67 S13       29.83F
HURON          MOSUNNY   86  72  62 SE10      29.77S
CHAMBERLAIN    PTSUNNY   89  71  55 SE9       29.77F
MITCHELL       PTSUNNY   89  71  55 SE16      29.78F HX  95
YANKTON        SUNNY     86  73  66 SE15      29.80F
$$

ABBREVIATIONS USED IN REMARKS
   TC - TEMPERATURE IN CELSIUS
  WCI - WIND CHILL INDEX
   HX - HEAT INDEX
  VSB - VISIBILITY




USA.gov is the U.S. government's official web portal to all federal, state and local government web resources and services.